User: anonymous   Login
Location: Bushey
(51.6333°N, 0.3667°W)
Time: 01:53:40
(UTC+00:00)
Language:

SJ-6B - Orbit

View from above orbital plane
View from above orbital plane
View from above satellite
View from above satellite

Ground track
Ground track

The orbit data is extracted from the following two-line orbital elements,

1 28415U 04035C   21136.16651418 -.00000084  00000-0 -11231-5 0  9994
2 28415  97.5677 179.2396 0049812 298.4033  61.2178 15.07106230913747
Epoch (UTC): 16 May 2021 03:59:46
Eccentricity: 0.0049812
inclination: 97.5677°
perigee height: 510 km
apogee height: 579 km
right ascension of ascending node: 179.2396°
argument of perigee: 298.4033°
revolutions per day: 15.07106230
mean anomaly at epoch: 61.2178°
orbit number at epoch: 91374

The dashed part of the orbit path shows where the satellite is in the earth's shadow,  

DLR